Date String (YYYY-MM-DD hh:mm:ss) UTC,Instrument flags,Ambient pressure (hPa),Sample flow (lpm),Bypass flow (lpm),Sample temperature (°C),Ambient temperature (°C),ASC tube jacket temperature (°C),LED temperature (°C),Box temperature (°C),Sample RH (%),Span deviation,Mass concentration (μg/m³),Mass concentration (μg/m³),Mass concentration (μg/m³)
DateTimeUTC,F1_M11,P_M11,Q1_M11,Q2_M11,T1_M11,T2_M11,T3_M11,T4_M11,T5_M11,U1_M11,ZSPAN_M11,X0_M11,X2_M11,X1_M11
2022-07-15 14:00:00,,0832.9,5.01,0.00,29.7,28.2,00.0,38.5,31.5,27.3,0000.0,0010.06,0004.14,0003.48
2022-07-15 14:01:00,,0832.8,5.01,0.00,29.7,28.4,00.0,38.5,31.6,27.1,0000.0,0010.11,0004.16,0003.49
2022-07-15 14:02:00,,0832.9,4.99,0.00,29.7,28.5,00.0,38.5,31.6,27.2,0000.0,0010.00,0004.16,0003.49
2022-07-15 14:03:00,,0832.9,5.00,0.00,29.8,28.6,00.0,38.5,31.7,27.1,0000.0,0010.13,0004.19,0003.49
2022-07-15 14:04:00,,0832.9,5.01,0.00,29.8,28.7,00.0,38.5,31.7,26.9,0000.0,0010.44,0004.22,0003.50
2022-07-15 14:05:00,,0832.8,4.99,0.00,29.8,28.7,00.0,38.5,31.7,27.1,0000.0,0010.61,0004.24,0003.50
2022-07-15 14:06:00,,0832.8,5.01,0.00,29.8,28.8,00.0,38.5,31.8,27.1,0000.0,0010.24,0004.22,0003.49
2022-07-15 14:07:00,,0832.9,5.01,0.00,29.9,28.8,00.0,38.6,31.8,27.3,0000.0,0010.20,0004.16,0003.48
2022-07-15 14:08:00,,0832.8,5.00,0.00,29.9,28.2,00.0,38.5,31.8,27.1,0000.0,0010.63,0004.18,0003.48
2022-07-15 14:09:00,,0832.8,5.00,0.00,29.8,27.5,00.0,38.5,31.6,26.7,0000.0,0010.48,0004.17,0003.48
2022-07-15 14:10:00,,0832.9,4.99,0.00,29.8,27.4,00.0,38.5,31.5,26.9,0000.0,0010.09,0004.21,0003.48
2022-07-15 14:11:00,,0832.8,5.01,0.00,29.7,27.5,00.0,38.4,31.4,27.3,0000.0,0010.45,0004.19,0003.48
2022-07-15 14:12:00,,0832.8,5.00,0.00,29.7,27.6,00.0,38.4,31.4,27.5,0000.0,0010.51,0004.16,0003.48
2022-07-15 14:13:00,,0832.9,5.00,0.00,29.7,27.8,00.0,38.5,31.4,27.1,0000.0,0010.26,0004.15,0003.48
2022-07-15 14:14:00,,0832.9,4.99,0.00,29.7,27.9,00.0,38.4,31.5,27.4,0000.0,0010.31,0004.16,0003.49
2022-07-15 14:15:00,,0832.9,4.99,0.00,29.7,28.1,00.0,38.5,31.5,27.6,0000.0,0010.57,0004.16,0003.48
2022-07-15 14:16:00,,0833.0,5.01,0.00,29.7,28.2,00.0,38.5,31.5,27.6,0000.0,0009.55,0004.13,0003.48
2022-07-15 14:17:00,,0833.0,5.01,0.00,29.7,28.4,00.0,38.5,31.6,27.3,0000.0,0009.80,0004.14,0003.49
2022-07-15 14:18:00,,0833.0,4.99,0.00,29.7,28.5,00.0,38.5,31.7,27.4,0000.0,0009.81,0004.18,0003.50
2022-07-15 14:19:00,,0833.1,5.01,0.00,29.8,28.6,00.0,38.5,31.7,27.6,0000.0,0009.48,0004.17,0003.50
2022-07-15 14:20:00,,0833.1,4.99,0.00,29.8,28.7,00.0,38.5,31.7,26.9,0000.0,0009.61,0004.17,0003.50
2022-07-15 14:21:00,,0833.1,5.01,0.00,29.8,28.8,00.0,38.5,31.7,27.0,0000.0,0009.53,0004.15,0003.51
2022-07-15 14:22:00,,0833.0,4.99,0.00,29.9,28.8,00.0,38.5,31.8,27.1,0000.0,0009.19,0004.13,0003.51
2022-07-15 14:23:00,,0833.0,5.00,0.00,29.9,28.2,00.0,38.5,31.7,26.9,0000.0,0009.37,0004.15,0003.52
2022-07-15 14:24:00,,0833.1,5.01,0.00,29.8,27.6,00.0,38.4,31.6,26.8,0000.0,0009.47,0004.19,0003.51
2022-07-15 14:25:00,,0833.0,5.00,0.00,29.8,27.5,00.0,38.4,31.5,27.3,0000.0,0009.31,0004.14,0003.50
2022-07-15 14:26:00,,0833.0,4.99,0.00,29.7,27.6,00.0,38.4,31.4,27.5,0000.0,0009.07,0004.11,0003.49
2022-07-15 14:27:00,,0833.0,5.00,0.00,29.7,27.7,00.0,38.4,31.4,27.7,0000.0,0009.60,0004.14,0003.47
2022-07-15 14:28:00,,0833.1,4.99,0.00,29.7,27.9,00.0,38.4,31.5,28.2,0000.0,0009.45,0004.14,0003.47
2022-07-15 14:29:00,,0833.0,5.01,0.00,29.7,28.0,00.0,38.4,31.5,27.8,0000.0,0009.80,0004.12,0003.46
2022-07-15 14:30:00,,0833.1,5.00,0.00,29.7,28.2,00.0,38.5,31.6,28.0,0000.0,0009.71,0004.13,0003.45
2022-07-15 14:31:00,,0833.0,5.00,0.00,29.7,28.3,00.0,38.5,31.6,27.8,0000.0,0009.25,0004.16,0003.45
2022-07-15 14:32:00,,0833.1,5.00,0.00,29.7,28.4,00.0,38.5,31.6,27.7,0000.0,0009.30,0004.19,0003.45
2022-07-15 14:33:00,,0833.0,5.00,0.00,29.8,28.6,00.0,38.5,31.7,27.2,0000.0,0009.70,0004.18,0003.43
2022-07-15 14:34:00,,0833.0,4.99,0.00,29.8,28.7,00.0,38.5,31.7,27.3,0000.0,0009.43,0004.16,0003.42
2022-07-15 14:35:00,,0833.0,5.01,0.00,29.8,28.7,00.0,38.5,31.8,27.4,0000.0,0009.46,0004.18,0003.42
2022-07-15 14:36:00,,0833.0,5.00,0.00,29.8,28.4,00.0,38.5,31.8,27.6,0000.0,0010.43,0004.21,0003.43
2022-07-15 14:37:00,,0832.9,4.99,0.00,29.8,27.7,00.0,38.4,31.7,27.6,0000.0,0010.85,0004.26,0003.43
2022-07-15 14:38:00,,0832.9,5.01,0.00,29.8,27.5,00.0,38.4,31.6,27.4,0000.0,0010.96,0004.26,0003.44
2022-07-15 14:39:00,,0832.9,5.00,0.00,29.7,27.6,00.0,38.4,31.5,27.7,0000.0,0011.17,0004.28,0003.44
2022-07-15 14:40:00,,0832.8,5.00,0.00,29.7,27.7,00.0,38.4,31.4,27.8,0000.0,0010.94,0004.26,0003.44
2022-07-15 14:41:00,,0832.8,5.00,0.00,29.7,27.8,00.0,38.4,31.5,28.0,0000.0,0012.17,0004.27,0003.44
2022-07-15 14:42:00,,0832.8,5.00,0.00,29.7,28.0,00.0,38.5,31.5,28.0,0000.0,0012.25,0004.26,0003.44
2022-07-15 14:43:00,,0832.8,5.01,0.00,29.7,28.1,00.0,38.5,31.6,28.0,0000.0,0012.14,0004.23,0003.44
2022-07-15 14:44:00,,0832.8,4.98,0.00,29.7,28.3,00.0,38.5,31.6,27.8,0000.0,0012.09,0004.27,0003.44
2022-07-15 14:45:00,,0832.8,5.00,0.00,29.7,28.4,00.0,38.5,31.6,27.5,0000.0,0012.54,0004.31,0003.45
2022-07-15 14:46:00,,0832.8,5.01,0.00,29.8,28.6,00.0,38.5,31.7,27.7,0000.0,0012.49,0004.29,0003.46
2022-07-15 14:47:00,,0832.8,4.99,0.00,29.8,28.7,00.0,38.5,31.7,27.8,0000.0,0012.13,0004.28,0003.46
2022-07-15 14:48:00,,0832.8,5.01,0.00,29.8,28.5,00.0,38.5,31.7,27.9,0000.0,0011.89,0004.25,0003.47
2022-07-15 14:49:00,,0832.8,5.00,0.00,29.8,27.8,00.0,38.4,31.7,27.7,0000.0,0011.53,0004.23,0003.48
2022-07-15 14:50:00,,0832.8,5.01,0.00,29.8,27.5,00.0,38.4,31.6,27.6,0000.0,0011.26,0004.20,0003.47
2022-07-15 14:51:00,,0832.8,5.00,0.00,29.7,27.5,00.0,38.4,31.5,27.7,0000.0,0011.24,0004.22,0003.48
2022-07-15 14:52:00,,0832.8,5.01,0.00,29.7,27.6,00.0,38.4,31.4,27.7,0000.0,0010.14,0004.23,0003.48
2022-07-15 14:53:00,,0832.8,5.00,0.00,29.7,27.8,00.0,38.4,31.4,28.2,0000.0,0010.06,0004.21,0003.49
2022-07-15 14:54:00,,0832.9,5.00,0.00,29.7,28.0,00.0,38.4,31.5,27.9,0000.0,0010.62,0004.25,0003.50
2022-07-15 14:55:00,,0832.9,4.99,0.00,29.7,28.1,00.0,38.4,31.5,27.7,0000.0,0010.60,0004.26,0003.51
2022-07-15 14:56:00,,0832.9,5.00,0.00,29.7,28.3,00.0,38.4,31.6,27.6,0000.0,0009.79,0004.25,0003.52
2022-07-15 14:57:00,,0832.9,4.99,0.00,29.7,28.4,00.0,38.5,31.6,27.7,0000.0,0009.81,0004.26,0003.53
2022-07-15 14:58:00,,0832.9,5.01,0.00,29.7,28.5,00.0,38.5,31.7,27.6,0000.0,0009.37,0004.28,0003.53
2022-07-15 14:59:00,,0832.8,5.00,0.00,29.8,28.6,00.0,38.5,31.7,27.5,0000.0,0009.22,0004.33,0003.54
